CW9742 Weather Reports


Display with metric or nautical units.
time (UTC)temp
F
wind
direction
speed
MPH
gust
MPH
rain 1hr
in
rain 24hr
in
rain mn
in
humidity
%
barometer
mb
20260509011528 57 276 0.0 0.0 0.00 0.00 0.00 30 1006.4
20260509010027 58 276 0.0 0.0 0.00 0.00 0.00 28 1006.2
20260509004526 59 276 1.0 5.0 0.00 0.00 0.00 27 1006.1
20260509003026 60 309 1.0 3.0 0.00 0.00 0.00 25 1006.1
20260509001525 60 321 2.0 9.0 0.00 0.00 0.00 24 1006.1
20260509000024 62 282 2.0 5.0 0.00 0.00 0.00 24 1006.0
20260508234524 62 309 3.0 6.0 0.00 0.00 0.00 24 1006.0
20260508233024 63 300 5.0 9.0 0.00 0.00 0.00 23 1005.8
20260508231523 64 284 2.0 8.0 0.00 0.00 0.00 23 1005.7
20260508230121 64 275 5.0 9.0 0.00 0.00 0.00 21 1005.7
20260508224549 64 271 3.0 10.0 0.00 0.00 0.00 24 1005.6
20260508223030 64 270 5.0 11.0 0.00 0.00 0.00 23 1005.6
20260508221518 65 243 3.0 9.0 0.00 0.00 0.00 25 1005.8
20260508220017 65 275 5.0 10.0 0.00 0.00 0.00 27 1005.8
20260508214516 66 219 2.0 8.0 0.00 0.00 0.00 28 1005.8
20260508213015 66 225 1.0 7.0 0.00 0.00 0.00 28 1005.9
20260508211514 65 265 6.0 11.0 0.00 0.00 0.00 28 1006.1
20260508210011 65 294 5.0 10.0 0.00 0.00 0.00 28 1006.2
20260508204516 66 250 4.0 13.0 0.00 0.00 0.00 28 1006.3
20260508203007 66 304 5.0 9.0 0.00 0.00 0.00 26 1006.6
20260508201506 66 263 1.0 5.0 0.00 0.00 0.00 27 1006.8
20260508200001 65 274 4.0 9.0 0.00 0.00 0.00 27 1007.3
20260508194558 64 286 4.0 15.0 0.00 0.00 0.00 27 1007.5
20260508193128 64 269 6.0 11.0 0.00 0.00 0.00 29 1007.7
20260508191556 64 257 2.0 8.0 0.00 0.00 0.00 31 1008.0
20260508190054 64 169 2.0 6.0 0.00 0.00 0.00 29 1008.2
20260508184614 64 235 3.0 10.0 0.00 0.00 0.00 29 1008.4
20260508183056 64 291 0.0 0.0 0.00 0.00 0.00 28 1008.5
20260508181548 64 192 0.0 8.0 0.00 0.00 0.00 30 1008.8
20260508180053 62 300 0.0 6.0 0.00 0.00 0.00 29 1009.0
20260508174557 62 205 1.0 7.0 0.00 0.00 0.00 30 1009.2
20260508173040 61 268 3.0 9.0 0.00 0.00 0.00 29 1009.4
20260508171558 60 252 0.0 8.0 0.00 0.00 0.00 32 1009.8
20260508170040 61 296 6.0 12.0 0.00 0.00 0.00 31 1010.0
20260508164537 60 305 3.0 8.0 0.00 0.00 0.00 32 1010.2
20260508163034 59 205 1.0 9.0 0.00 0.00 0.00 34 1010.4
20260508161539 59 327 3.0 9.0 0.00 0.00 0.00 34 1010.3
20260508160033 59 279 2.0 11.0 0.00 0.00 0.00 32 1010.6
20260508154525 58 89 0.0 4.0 0.00 0.00 0.00 36 1010.7
20260508153033 58 236 2.0 5.0 0.00 0.00 0.00 44 1010.8
20260508151535 57 250 5.0 10.0 0.00 0.00 0.00 40 1010.8
20260508150023 56 282 0.0 0.0 0.00 0.00 0.00 36 1011.0
20260508144515 56 207 0.0 0.0 0.00 0.00 0.00 48 1011.1
20260508143011 55 150 0.0 0.0 0.00 0.00 0.00 49 1011.2
20260508141511 54 142 0.0 0.0 0.00 0.00 0.00 51 1011.4
20260508140004 53 136 0.0 0.0 0.00 0.00 0.00 54 1011.4
20260508134505 52 200 0.0 0.0 0.00 0.00 0.00 57 1011.5
20260508133112 51 171 0.0 7.0 0.00 0.00 0.00 59 1011.8
20260508131557 50 180 0.0 0.0 0.00 0.00 0.00 61 1011.8
20260508130050 48 199 0.0 0.0 0.00 0.00 0.00 64 1012.0
20260508124546 47 220 0.0 0.0 0.00 0.00 0.00 69 1011.9
20260508123043 45 241 0.0 0.0 0.00 0.00 0.00 77 1011.9
20260508121541 43 243 0.0 0.0 0.00 0.00 0.00 83 1011.7
20260508120043 41 243 0.0 0.0 0.00 0.00 0.00 89 1011.5
20260508114538 39 249 0.0 0.0 0.00 0.00 0.00 91 1011.4
20260508113044 37 306 0.0 0.0 0.00 0.00 0.00 90 1011.2
20260508111536 35 306 0.0 0.0 0.00 0.00 0.00 89 1011.1
20260508110034 35 306 0.0 0.0 0.00 0.00 0.00 87 1010.9
20260508104533 35 306 0.0 0.0 0.00 0.00 0.00 86 1010.9
20260508103034 36 306 0.0 0.0 0.00 0.00 0.00 86 1010.8
20260508101532 36 306 0.0 0.0 0.00 0.00 0.00 86 1010.8
20260508100028 37 306 0.0 0.0 0.00 0.00 0.00 85 1010.8
20260508094525 37 306 0.0 0.0 0.00 0.00 0.00 85 1010.9
20260508093023 38 306 0.0 0.0 0.00 0.00 0.00 84 1010.9
20260508091532 38 306 0.0 0.0 0.00 0.00 0.00 83 1010.9
20260508090018 39 306 0.0 0.0 0.00 0.00 0.00 82 1011.0
20260508084515 39 306 0.0 0.0 0.00 0.00 0.00 82 1010.9
20260508083024 40 306 0.0 0.0 0.00 0.00 0.00 81 1011.0
20260508081512 40 306 0.0 0.0 0.00 0.00 0.00 80 1011.0
20260508080010 41 306 0.0 0.0 0.00 0.00 0.00 79 1011.1
20260508074509 41 306 0.0 0.0 0.00 0.00 0.00 78 1011.1
20260508073009 41 306 0.0 0.0 0.00 0.00 0.00 78 1011.1
20260508071506 41 306 0.0 0.0 0.00 0.00 0.00 77 1011.1
20260508070006 42 306 0.0 0.0 0.00 0.00 0.00 76 1011.1
20260508064503 42 306 0.0 0.0 0.00 0.00 0.00 76 1011.2
20260508063001 42 306 0.0 0.0 0.00 0.00 0.00 76 1011.2
20260508061601 42 306 0.0 0.0 0.00 0.00 0.00 75 1011.4
20260508060059 42 306 0.0 0.0 0.00 0.00 0.00 74 1011.5
20260508054558 43 306 0.0 0.0 0.00 0.00 0.00 74 1011.5
20260508053102 43 306 0.0 0.0 0.00 0.00 0.00 72 1011.5
20260508051618 43 306 0.0 0.0 0.00 0.00 0.00 71 1011.4
20260508050052 43 306 0.0 0.0 0.00 0.00 0.00 70 1011.5
20260508044550 44 306 0.0 0.0 0.00 0.00 0.00 68 1011.2
20260508043047 44 306 0.0 0.0 0.00 0.00 0.00 67 1011.2
20260508041546 45 306 0.0 0.0 0.00 0.00 0.00 66 1011.0
20260508040042 46 306 0.0 0.0 0.00 0.00 0.00 65 1011.2
20260508034541 46 306 0.0 0.0 0.00 0.00 0.00 63 1011.0
20260508033048 47 298 0.0 0.0 0.00 0.00 0.00 64 1011.2
20260508031541 47 298 0.0 0.0 0.00 0.00 0.00 62 1011.0
20260508030045 48 298 0.0 0.0 0.00 0.00 0.00 63 1011.1
20260508024539 48 298 0.0 0.0 0.00 0.00 0.00 62 1011.0
20260508023038 49 298 0.0 0.0 0.00 0.00 0.00 62 1011.0
20260508021543 49 298 0.0 0.0 0.00 0.00 0.00 59 1010.9
20260508020037 49 298 0.0 0.0 0.00 0.00 0.00 56 1010.8
20260508014537 49 298 0.0 0.0 0.00 0.00 0.00 56 1010.7
20260508013135 50 298 0.0 0.0 0.00 0.00 0.00 53 1010.5